Weather History for Rayong, Thailand

Change the Weather History Date:

Monday, March 12, 2012

  Actual Average Record
Temperature  
Mean Temperature 82 °F -  
Max Temperature 87 °F 88 °F 93 °F (2004)
Min Temperature 78 °F 78 °F 68 °F (2007)
Cooling Degree Days 18    
Growing Degree Days 32 (Base 50)    
Moisture  
Dew Point 77 °F    
Average Humidity 84    
Maximum Humidity 94    
Minimum Humidity 70    
Precipitation  
Precipitation 0.00 in - - ()
Sea Level Pressure  
Sea Level Pressure 29.87 in    
Wind  
Wind Speed 3 mph ()    
Max Wind Speed 9 mph    
Max Gust Speed -    
Visibility 3.3 miles    
Events Rain , Thunderstorm    
Averages and records for this station are not official NWS values.
T = Trace of Precipitation, MM = Missing Value Source: Averaged Metar Reports

Daily Weather History Graph

Daily Weather History Graph

Search for Another Location

Airport:

Trip Planner

Search our weather history database for the weather conditions in past years. The results will help you decide how hot, cold, wet, or windy it might be!

Date:

Astronomy

Mar. 12, 2012 Rise Set
Actual Time 6:25 AM ICT 6:26 PM ICT
Civil Twilight 6:04 AM ICT 6:47 PM ICT
Nautical Twilight 5:39 AM ICT 7:12 PM ICT
Astronomical Twilight 5:14 AM ICT 7:36 PM ICT
Moon 10:23 PM ICT (3/12) 9:16 AM ICT (3/12)
Length of Visible Light 12h 43m
Length of Day
12h 01m
Waning Gibbous, 81% of the Moon is Illuminated
Mar 12
Waning Gibbous
Mar 15
Last Quarter
Mar 22
New
Mar 31
First Quarter
Apr 7
Full

Hourly Weather History & Observations

Time (ICT) Temp. Heat Index Dew Point Humidity Pressure Visibility Wind Dir Wind Speed Gust Speed Precip Events Conditions
12:00 AM 78.8 °F - 75.2 °F 89% 29.86 in 4.3 mi Calm Calm - N/A   Mostly Cloudy
12:30 AM 78.8 °F - 75.2 °F 89% 29.86 in 4.3 mi North 3.5 mph - N/A   Mostly Cloudy
1:00 AM 78.8 °F - 75.2 °F 89% 29.86 in 4.3 mi North 2.3 mph - N/A   Mostly Cloudy
1:30 AM 78.8 °F - 77.0 °F 94% 29.83 in 4.3 mi North 3.5 mph - N/A   Mostly Cloudy
2:00 AM 78.8 °F - 75.2 °F 89% 29.83 in 4.3 mi North 2.3 mph - N/A   Mostly Cloudy
2:30 AM 78.8 °F - 77.0 °F 94% 29.83 in 4.3 mi North 3.5 mph - N/A   Mostly Cloudy
3:00 AM 78.8 °F - 75.2 °F 89% 29.83 in 3.7 mi North 3.5 mph - N/A   Mostly Cloudy
3:30 AM 78.8 °F - 77.0 °F 94% 29.83 in 3.7 mi NNE 3.5 mph - N/A   Mostly Cloudy
4:00 AM 78.8 °F - 75.2 °F 89% 29.83 in 3.7 mi North 3.5 mph - N/A   Mostly Cloudy
4:30 AM 78.8 °F - 77.0 °F 94% 29.83 in 3.7 mi North 4.6 mph - N/A   Mostly Cloudy
5:00 AM 78.8 °F - 77.0 °F 94% 29.83 in 3.7 mi North 4.6 mph - N/A   Mostly Cloudy
5:30 AM 78.8 °F - 77.0 °F 94% 29.83 in 3.7 mi North 4.6 mph - N/A   Mostly Cloudy
6:00 AM 78.8 °F - 77.0 °F 94% 29.86 in 3.7 mi Calm Calm - N/A   Mostly Cloudy
6:30 AM 78.8 °F - 77.0 °F 94% 29.86 in 3.1 mi Calm Calm - N/A Thunderstorm Thunderstorm
7:00 AM 78.8 °F - 77.0 °F 94% 29.89 in 3.1 mi Calm Calm - N/A Thunderstorm Thunderstorm
7:30 AM 80.6 °F 87.1 °F 77.0 °F 89% 29.86 in 2.5 mi Calm Calm - N/A Thunderstorm Thunderstorm
8:00 AM 80.6 °F 88.1 °F 78.8 °F 94% 29.92 in 2.5 mi Calm Calm - N/A Thunderstorm Thunderstorm
8:30 AM 80.6 °F 87.1 °F 77.0 °F 89% 29.92 in 2.5 mi NNE 4.6 mph - N/A   Mostly Cloudy
9:00 AM 84.2 °F 94.1 °F 77.0 °F 79% 29.92 in 2.5 mi NE 2.3 mph - N/A   Mostly Cloudy
9:30 AM 86.0 °F 96.9 °F 77.0 °F 74% 29.92 in 3.1 mi NNW 3.5 mph - N/A   Mostly Cloudy
10:00 AM 87.8 °F 99.7 °F 77.0 °F 70% 29.92 in 3.1 mi NNE 3.5 mph - N/A   Mostly Cloudy
10:30 AM 87.8 °F 99.7 °F 77.0 °F 70% 29.92 in 3.1 mi North 4.6 mph - N/A   Mostly Cloudy
11:00 AM 87.8 °F 99.7 °F 77.0 °F 70% 29.92 in 3.1 mi North 6.9 mph - N/A   Mostly Cloudy
11:30 AM 87.8 °F 99.7 °F 77.0 °F 70% 29.92 in 3.1 mi NE 6.9 mph - N/A   Mostly Cloudy
12:00 PM 87.8 °F 99.7 °F 77.0 °F 70% 29.89 in 3.1 mi NNE 4.6 mph - N/A   Mostly Cloudy
12:30 PM 87.8 °F 99.7 °F 77.0 °F 70% 29.89 in 3.1 mi South 6.9 mph - N/A Rain Rain Showers
1:00 PM 86.0 °F 101.9 °F 80.6 °F 84% 29.86 in 3.1 mi West 4.6 mph - N/A Rain Rain Showers
1:30 PM 82.4 °F 92.4 °F 78.8 °F 89% 29.86 in 3.1 mi SW 9.2 mph - N/A   Mostly Cloudy
2:00 PM 84.2 °F 96.1 °F 78.8 °F 84% 29.86 in 3.1 mi WNW 6.9 mph - N/A   Mostly Cloudy
2:30 PM 84.2 °F 96.1 °F 78.8 °F 84% 29.83 in 3.1 mi WNW 6.9 mph - N/A   Mostly Cloudy
3:00 PM 86.0 °F 99.3 °F 78.8 °F 79% 29.83 in 3.1 mi WNW 6.9 mph - N/A   Mostly Cloudy
3:30 PM 87.8 °F 102.5 °F 78.8 °F 75% 29.83 in 3.1 mi West 6.9 mph - N/A   Mostly Cloudy
4:00 PM 87.8 °F 102.5 °F 78.8 °F 75% 29.83 in 3.1 mi WSW 9.2 mph - N/A   Mostly Cloudy
4:30 PM 87.8 °F 102.5 °F 78.8 °F 75% 29.83 in 3.1 mi SW 9.2 mph - N/A   Mostly Cloudy
5:00 PM 87.8 °F 102.5 °F 78.8 °F 75% 29.83 in 3.1 mi SW 9.2 mph - N/A   Mostly Cloudy
5:30 PM 86.0 °F 99.3 °F 78.8 °F 79% 29.83 in 3.1 mi West 6.9 mph - N/A   Mostly Cloudy
6:00 PM 84.2 °F 96.1 °F 78.8 °F 84% 29.83 in 3.1 mi West 5.8 mph - N/A   Mostly Cloudy
6:30 PM 84.2 °F 94.1 °F 77.0 °F 79% 29.83 in 3.1 mi WSW 4.6 mph - N/A   Mostly Cloudy
7:00 PM 84.2 °F 94.1 °F 77.0 °F 79% 29.83 in 3.1 mi SSW 4.6 mph - N/A   Mostly Cloudy
7:30 PM 84.2 °F 94.1 °F 77.0 °F 79% 29.86 in 3.1 mi SW 3.5 mph - N/A   Mostly Cloudy
8:00 PM 82.4 °F 90.9 °F 77.0 °F 84% 29.86 in 3.1 mi SW 3.5 mph - N/A   Mostly Cloudy
8:30 PM 82.4 °F 90.9 °F 77.0 °F 84% 29.89 in 3.1 mi SW 3.5 mph - N/A   Mostly Cloudy
9:00 PM 82.4 °F 90.9 °F 77.0 °F 84% 29.89 in 3.1 mi WNW 2.3 mph - N/A   Mostly Cloudy
9:30 PM 80.6 °F 87.1 °F 77.0 °F 89% 29.89 in 3.1 mi WSW 3.5 mph - N/A   Mostly Cloudy
10:00 PM 82.4 °F 90.9 °F 77.0 °F 84% 29.89 in 3.1 mi Calm Calm - N/A   Mostly Cloudy
10:30 PM 80.6 °F 87.1 °F 77.0 °F 89% 29.89 in 3.1 mi NNE 2.3 mph - N/A   Mostly Cloudy
11:00 PM 80.6 °F 87.1 °F 77.0 °F 89% 29.92 in 3.1 mi Calm Calm - N/A   Mostly Cloudy
11:30 PM 80.6 °F 87.1 °F 77.0 °F 89% 29.92 in 3.1 mi Calm Calm - N/A   Mostly Cloudy